When you browse on this site, cookies collect data to enhance your experience and personalize the content and advertising you see.
Visit our Privacy Policy to learn more. By continuing to use the site, you agree to this use of cookies and data.
  • In Portugal
  • List of Countries
  • For 7 days
  • Water Temperature
  • Weather Map
  • Weather Widgets
  • user-avatar
    Login

    Hourly Weather Juwaja

    Today, 1 April, Wednesday

    Time Temperature Precipitation Wind Pressure Humidity
    00:00 +13°C° 0.1 mm 4 mps 732 mmHg 85%
    01:00 +13°C° 0.1 mm 5 mps 732 mmHg 83%
    02:00 +13°C° 0 mm 6 mps 731 mmHg 84%
    03:00 +13°C° 0.5 mm 6 mps 731 mmHg 86%
    04:00 +13°C° 0.5 mm 6 mps 731 mmHg 89%
    05:00 +13°C° 0.5 mm 6 mps 731 mmHg 91%
    06:00 +14°C° 0.7 mm 7 mps 732 mmHg 90%
    07:00 +13°C° 0.7 mm 8 mps 732 mmHg 89%
    08:00 +13°C° 0 mm 8 mps 732 mmHg 90%
    09:00 +15°C° 0.5 mm 7 mps 733 mmHg 90%
    10:00 +15°C° 0.5 mm 6 mps 733 mmHg 89%
    11:00 +16°C° 0.5 mm 6 mps 733 mmHg 89%
    12:00 +16°C° 0.3 mm 6 mps 734 mmHg 85%
    13:00 +16°C° 0.3 mm 6 mps 734 mmHg 80%
    14:00 +16°C° 0 mm 5 mps 734 mmHg 80%
    15:00 +16°C° 0.2 mm 5 mps 734 mmHg 82%
    16:00 +17°C° 0.2 mm 4 mps 734 mmHg 84%
    17:00 +15°C° 0.2 mm 4 mps 734 mmHg 86%
    18:00 +14°C° 0.2 mm 4 mps 735 mmHg 89%
    19:00 +14°C° 0.2 mm 3 mps 735 mmHg 91%
    20:00 +13°C° 0.2 mm 3 mps 735 mmHg 94%
    21:00 +13°C° 0.1 mm 3 mps 735 mmHg 94%
    22:00 +14°C° 0.1 mm 2 mps 736 mmHg 94%
    23:00 +13°C° 0.1 mm 2 mps 736 mmHg 93%

    Tomorrow, 2 April, Thursday

    Time Temperature Precipitation Wind Pressure Humidity
    00:00 +13°C° 0.1 mm 2 mps 736 mmHg 93%
    01:00 +13°C° 0.1 mm 2 mps 735 mmHg 93%
    02:00 +13°C° 0.1 mm 2 mps 735 mmHg 92%
    03:00 +13°C° 0.1 mm 2 mps 735 mmHg 93%
    04:00 +13°C° 0.1 mm 2 mps 735 mmHg 93%
    05:00 +13°C° 0.1 mm 2 mps 736 mmHg 93%
    06:00 +13°C° 0.1 mm 2 mps 736 mmHg 88%
    07:00 +14°C° 0.1 mm 2 mps 736 mmHg 84%
    08:00 +15°C° 0.1 mm 2 mps 736 mmHg 80%
    09:00 +16°C° 0 mm 3 mps 737 mmHg 74%
    10:00 +17°C° 0 mm 3 mps 737 mmHg 68%
    11:00 +18°C° 0 mm 3 mps 737 mmHg 61%
    12:00 +18°C° 0 mm 4 mps 737 mmHg 62%
    13:00 +18°C° 0 mm 4 mps 737 mmHg 62%
    14:00 +18°C° 0 mm 4 mps 736 mmHg 63%
    15:00 +17°C° 0 mm 4 mps 736 mmHg 66%
    16:00 +16°C° 0 mm 3 mps 736 mmHg 69%
    17:00 +16°C° 0 mm 3 mps 736 mmHg 73%
    18:00 +15°C° 0 mm 2 mps 736 mmHg 77%
    19:00 +14°C° 0 mm 2 mps 737 mmHg 82%
    20:00 +12°C° 0 mm 1 mps 737 mmHg 86%
    21:00 +12°C° 0 mm 1 mps 737 mmHg 84%
    22:00 +12°C° 0 mm 1 mps 737 mmHg 82%
    23:00 +12°C° 0 mm 1 mps 737 mmHg 80%

    Day after tomorrow, 3 April, Friday

    Time Temperature Precipitation Wind Pressure Humidity
    00:00 +12°C° 0 mm 1 mps 737 mmHg 79%
    01:00 +11°C° 0 mm 1 mps 737 mmHg 79%
    02:00 +11°C° 0 mm 1 mps 736 mmHg 79%
    03:00 +11°C° 0 mm 1 mps 736 mmHg 79%
    04:00 +11°C° 0 mm 1 mps 736 mmHg 80%
    05:00 +10°C° 0 mm 2 mps 736 mmHg 80%
    06:00 +13°C° 0 mm 2 mps 737 mmHg 75%
    07:00 +13°C° 0 mm 3 mps 737 mmHg 69%
    08:00 +16°C° 0 mm 3 mps 737 mmHg 64%
    09:00 +17°C° 0 mm 4 mps 737 mmHg 61%
    10:00 +17°C° 0 mm 5 mps 738 mmHg 59%
    11:00 +19°C° 0 mm 5 mps 738 mmHg 57%
    12:00 +19°C° 0 mm 5 mps 737 mmHg 57%
    13:00 +19°C° 0 mm 5 mps 737 mmHg 57%
    14:00 +19°C° 0 mm 5 mps 737 mmHg 57%
    15:00 +18°C° 0 mm 4 mps 737 mmHg 61%
    16:00 +18°C° 0 mm 3 mps 737 mmHg 64%
    17:00 +17°C° 0 mm 3 mps 737 mmHg 68%
    18:00 +15°C° 0 mm 2 mps 737 mmHg 73%
    19:00 +14°C° 0 mm 1 mps 738 mmHg 79%
    20:00 +13°C° 0 mm 1 mps 738 mmHg 84%
    21:00 +12°C° 0 mm 1 mps 738 mmHg 84%
    22:00 +12°C° 0 mm 1 mps 738 mmHg 84%
    23:00 +12°C° 0 mm 1 mps 738 mmHg 84%

    4 April, Saturday

    Time Temperature Precipitation Wind Pressure Humidity
    00:00 +12°C° 0 mm 1 mps 738 mmHg 81%
    01:00 +12°C° 0 mm 1 mps 738 mmHg 78%
    02:00 +12°C° 0 mm 1 mps 738 mmHg 75%
    03:00 +12°C° 0 mm 1 mps 738 mmHg 70%
    04:00 +12°C° 0 mm 1 mps 738 mmHg 65%
    05:00 +10°C° 0 mm 0 mps 738 mmHg 60%
    06:00 +13°C° 0 mm 0 mps 739 mmHg 54%
    07:00 +15°C° 0 mm 0 mps 739 mmHg 47%
    08:00 +17°C° 0 mm 0 mps 739 mmHg 41%
    09:00 +20°C° 0 mm 1 mps 739 mmHg 41%
    10:00 +21°C° 0 mm 1 mps 739 mmHg 42%
    11:00 +21°C° 0 mm 2 mps 739 mmHg 42%
    12:00 +23°C° 0 mm 2 mps 739 mmHg 44%
    13:00 +23°C° 0 mm 2 mps 738 mmHg 46%
    14:00 +24°C° 0 mm 2 mps 738 mmHg 48%
    15:00 +23°C° 0 mm 2 mps 738 mmHg 54%
    16:00 +23°C° 0 mm 2 mps 738 mmHg 59%
    17:00 +21°C° 0 mm 2 mps 737 mmHg 64%
    18:00 +20°C° 0 mm 2 mps 737 mmHg 61%
    19:00 +19°C° 0 mm 3 mps 737 mmHg 58%
    20:00 +18°C° 0 mm 3 mps 738 mmHg 54%
    21:00 +18°C° 0 mm 4 mps 737 mmHg 48%
    22:00 +19°C° 0 mm 4 mps 737 mmHg 42%
    23:00 +19°C° 0 mm 5 mps 737 mmHg 36%

    5 April, Sunday

    Time Temperature Precipitation Wind Pressure Humidity
    00:00 +19°C° 0 mm 5 mps 737 mmHg 33%
    01:00 +20°C° 0 mm 6 mps 736 mmHg 31%
    02:00 +20°C° 0 mm 7 mps 736 mmHg 28%
    03:00 +20°C° 0 mm 8 mps 735 mmHg 28%
    04:00 +19°C° 0 mm 9 mps 735 mmHg 28%
    05:00 +19°C° 0 mm 10 mps 735 mmHg 27%
    06:00 +19°C° 0 mm 10 mps 735 mmHg 30%
    07:00 +21°C° 0 mm 10 mps 735 mmHg 33%
    08:00 +22°C° 0 mm 10 mps 735 mmHg 36%
    09:00 +23°C° 0 mm 12 mps 735 mmHg 35%
    10:00 +26°C° 0 mm 13 mps 735 mmHg 35%
    11:00 +27°C° 0 mm 14 mps 735 mmHg 34%
    12:00 +28°C° 0 mm 13 mps 734 mmHg 34%
    13:00 +29°C° 0 mm 12 mps 733 mmHg 33%
    14:00 +31°C° 0 mm 11 mps 733 mmHg 33%
    15:00 +29°C° 0 mm 8 mps 733 mmHg 37%
    16:00 +28°C° 0 mm 6 mps 732 mmHg 41%
    17:00 +27°C° 0 mm 4 mps 732 mmHg 44%
    18:00 +24°C° 0 mm 3 mps 732 mmHg 53%
    19:00 +20°C° 0 mm 3 mps 733 mmHg 62%
    20:00 +18°C° 0 mm 3 mps 733 mmHg 71%
    21:00 +17°C° 0 mm 3 mps 734 mmHg 79%
    22:00 +16°C° 0 mm 2 mps 734 mmHg 86%
    23:00 +15°C° 0 mm 2 mps 735 mmHg 93%

    6 April, Monday

    Time Temperature Precipitation Wind Pressure Humidity
    00:00 +15°C° 0 mm 2 mps 735 mmHg 93%
    01:00 +15°C° 0 mm 2 mps 735 mmHg 93%
    02:00 +15°C° 0 mm 2 mps 735 mmHg 93%
    03:00 +15°C° 0 mm 2 mps 735 mmHg 92%
    04:00 +15°C° 0 mm 2 mps 735 mmHg 91%
    05:00 +15°C° 0 mm 2 mps 735 mmHg 91%
    06:00 +15°C° 0 mm 2 mps 736 mmHg 87%
    07:00 +16°C° 0 mm 2 mps 736 mmHg 83%
    08:00 +17°C° 0 mm 2 mps 736 mmHg 79%
    09:00 +17°C° 0 mm 3 mps 736 mmHg 75%
    10:00 +18°C° 0 mm 3 mps 736 mmHg 72%
    11:00 +19°C° 0 mm 4 mps 736 mmHg 68%
    12:00 +19°C° 0 mm 4 mps 736 mmHg 69%
    13:00 +19°C° 0 mm 4 mps 736 mmHg 69%
    14:00 +19°C° 0 mm 4 mps 736 mmHg 69%
    15:00 +18°C° 0 mm 4 mps 736 mmHg 72%
    16:00 +17°C° 0 mm 3 mps 736 mmHg 75%
    17:00 +16°C° 0 mm 3 mps 736 mmHg 77%
    18:00 +15°C° 0 mm 2 mps 736 mmHg 81%
    19:00 +14°C° 0 mm 2 mps 736 mmHg 84%
    20:00 +13°C° 0 mm 1 mps 736 mmHg 88%
    21:00 +13°C° 0 mm 1 mps 736 mmHg 87%
    22:00 +13°C° 0 mm 1 mps 736 mmHg 86%
    23:00 +13°C° 0 mm 1 mps 736 mmHg 86%
    Show more